[[{"header":{"parameterUnit":"m.s-1","parameterCategory":1,"la1":30.2991,"la2":30.254,"lo1":-89.0895,"lo2":-89.0444,"dy":0.0017,"dx":0.0017,"nx":28,"ny":28,"refTime":"2025-03-19T03:00:00:Z","depth":0,"parameterNumber":2,"parameterNumberName":"U-component_of_WINDS"},"data":[0,0,0,0,0,0,0,0,0,0,0,0,0,0,0,0,0,0,0,0,0,0,0,0,0,0,0,0,0,0,0,0,0,0,0,0,0,0,0,0,0,0,0,0,0,0,0,0,0,0,0,0,0,0,0,0,0,0,6.1949,6.195,0,6.2037,6.2038,6.2039,6.2,6.1998,6.1996,6.1994,6.2082,6.2087,6.2091,0,0,0,0,0,0,0,0,0,0,0,0,0,6.175,6.1754,6.1949,6.195,6.1951,6.2036,6.2038,6.2039,6.2001,6.1998,6.1996,6.1993,6.2081,6.2086,6.2091,0,0,0,0,0,0,0,0,0,0,0,0,0,6.1837,6.1755,6.1949,6.1943,6.1943,6.2036,6.2038,6.2039,6.2001,6.1998,6.1995,6.1992,6.2079,6.2086,6.2092,6.2196,0,0,6.2112,6.2115,0,0,0,0,0,0,0,0,6.1832,6.1844,6.1942,6.1943,6.1944,6.2004,6.2,6.2092,6.2002,6.1979,6.1994,6.199,6.2059,6.2067,6.209,6.22,6.2204,6.2112,6.2116,6.2119,6.2121,0,0,0,0,0,0,0,6.1826,6.184,6.1984,6.1944,6.1945,6.1936,6.1945,6.2017,6.2036,6.1981,6.1978,6.1989,6.2059,6.2084,6.2092,6.2205,6.2112,6.2118,6.2122,6.2125,6.2409,6.2412,0,0,0,0,0,0,6.182,6.1836,6.1981,6.1986,6.1879,6.1942,6.1952,6.1988,6.2035,6.2039,6.1992,6.1987,6.2075,6.2084,6.2095,6.2222,6.2119,6.2125,6.2129,6.2405,6.241,6.2414,0,0,0,0,0,0,6.1816,6.1833,6.1977,6.191,6.1928,6.1949,6.199,6.1992,6.2017,6.2043,6.2046,6.2014,6.2072,6.2086,6.2172,6.2225,6.2128,6.2134,6.2401,6.2407,6.2412,6.2476,0,0,0,0,0,0,6.181,6.1832,6.1872,6.1912,6.1932,6.2053,6.1993,6.1996,6.2028,6.2023,6.2065,6.2069,6.2071,6.2163,6.2179,6.2232,6.2139,6.2396,6.2403,6.241,6.2469,6.2483,6.2495,0,0,0,0,0,6.1803,6.1885,6.1874,6.1891,6.1981,6.2056,6.2067,6.2068,6.2033,6.2073,6.2091,6.2068,6.2216,6.2172,6.2189,6.2245,6.2393,6.2401,6.2409,6.2464,6.248,6.2494,0,0,0,0,0,0,6.1849,6.189,6.1878,6.1975,6.2013,6.2049,6.21,6.2085,6.2133,6.2126,6.2125,6.2135,6.2225,6.2243,6.2193,6.235,6.2299,6.2312,6.2335,6.2351,6.2363,6.2357,6.2145,0,0,0,0,0,6.1871,6.1928,6.1961,6.2043,6.2063,6.2079,6.2111,6.2109,6.2147,6.2163,6.2186,6.2224,6.228,6.2316,6.2369,6.2472,6.2482,6.252,6.2532,6.2543,6.2553,6.2612,6.263,6.2441,6.2441,6.244,0,0,6.1916,6.1945,6.1981,6.2053,6.2082,6.2142,6.2092,6.2156,6.2201,6.2172,6.2256,6.2275,6.2318,6.2414,6.2457,6.2432,6.2608,6.2553,6.2561,6.2566,6.2622,6.264,6.2656,6.2446,6.2445,6.2444,0,0,6.2028,6.2056,6.2129,6.2159,6.2204,6.2215,6.2233,6.2273,6.2285,6.2369,6.2349,6.2402,6.2497,6.2529,6.2558,6.2687,6.2669,6.2704,6.277,6.2828,6.2843,6.2856,6.2903,6.292,6.2715,6.2715,6.2715,0,6.2078,6.2167,6.2168,6.2236,6.2269,6.2247,6.2322,6.2351,6.2411,6.2434,6.2406,6.2527,6.2554,6.2659,6.2691,6.2714,6.2735,6.2699,6.2841,6.2854,6.2866,6.2911,6.2929,6.2719,6.2718,6.2718,6.2718,0,6.2227,6.229,6.2344,6.2404,6.2443,6.2514,6.2526,6.2566,6.2561,6.2575,6.2662,6.2694,6.2754,6.2779,6.2774,6.2884,6.2867,6.284,6.2789,6.2888,6.2931,6.2948,6.2725,6.2723,6.2722,6.2721,0,0,6.2369,6.2431,6.245,6.2479,6.2528,6.2577,6.2648,6.2707,6.2742,6.2785,6.2845,6.2928,6.2904,6.2937,6.2936,6.2986,6.3089,6.2953,6.2954,6.2978,6.3214,6.3235,6.3254,6.3077,6.308,6.3083,6.3211,0,6.2486,6.261,6.2615,6.2728,6.2788,6.2769,6.2831,6.2869,6.2885,6.2937,6.2954,6.3014,6.2977,6.2997,6.3046,6.3066,6.3136,6.3056,6.3134,6.3136,6.3124,6.3276,6.3298,6.3417,6.3227,6.323,6.3232,0,6.2639,6.2688,6.2808,6.2852,6.2877,6.2933,6.2989,6.304,6.3083,6.3091,6.313,6.3122,6.3196,6.3143,6.3245,6.3191,6.3223,6.3238,6.3243,6.325,6.319,6.3289,6.3454,6.3473,6.3258,6.3256,6.3254,0,6.2732,6.2828,6.2913,6.2938,6.2991,6.3031,6.3055,6.3095,6.3131,6.3181,6.3205,6.3262,6.3294,6.3339,6.3348,6.3308,6.3451,6.3398,6.346,6.346,6.3491,6.3489,6.3665,6.3511,6.3511,6.351,6.351,0,6.2862,6.2937,6.2956,6.3009,6.3093,6.3097,6.318,6.3201,6.3238,6.3295,6.3282,6.3336,6.3344,6.34,6.3407,6.3492,6.3506,6.3515,6.3517,6.3517,6.3516,6.3538,6.353,6.3515,6.3514,6.3513,6.3512,0,6.298,6.2996,6.3088,6.3132,6.3144,6.3204,6.3242,6.3293,6.3308,6.338,6.3398,6.3422,6.3487,6.3501,6.3578,6.3583,6.3685,6.3677,6.367,6.367,6.3732,6.3726,6.3928,6.3956,6.3783,6.3785,6.3786,0,6.3062,6.312,6.3171,6.3208,6.3235,6.3295,6.3333,6.3341,6.3381,6.3437,6.3481,6.3546,6.3598,6.3704,6.3728,6.3788,6.3782,6.3849,6.3791,6.3791,6.3785,6.3782,6.3788,6.386,6.3862,6.3864,6.3865,0,6.3208,6.3214,6.3269,6.3328,6.3374,6.3421,6.3466,6.3497,6.3511,6.3557,6.3625,6.3666,6.3746,6.3811,6.3871,6.3896,6.3884,6.3883,6.3901,6.3902,6.3896,6.3902,6.3701,6.3878,6.3877,6.3876,6.3875,6.3875,6.3311,6.3362,6.3407,6.347,6.3504,6.3547,6.3598,6.3621,6.3677,6.3744,6.3745,6.382,6.3864,6.3944,6.3973,6.4032,6.4011,6.4037,6.4043,6.405,6.4056,6.3887,6.4043,6.4043,6.4042,6.4042,6.4042,0,6.3457,6.3485,6.3543,6.3607,6.3657,6.3642,6.3691,6.3734,6.38,6.3843,6.3895,6.3974,6.4038,6.4069,6.4132,6.4173,6.417,6.419,6.4187,6.4193,6.407,6.4049,6.4192,6.4192,6.4192,6.4192,6.4192,6.4192,6.3538,6.3625,6.3637,6.3741,6.3769,6.3842,6.3872,6.3912,6.3946,6.4036,6.4089,6.4109,6.4148,6.4214,6.4272,6.428,6.4304,6.4328,6.4333,6.4217,6.4202,6.4187,6.4167,6.4333,6.4333,6.4451,6.4452,6.4453]},{"header":{"parameterUnit":"m.s-1","parameterCategory":1,"la1":30.2991,"la2":30.254,"lo1":-89.0895,"lo2":-89.0444,"dy":0.0017,"dx":0.0017,"nx":28,"ny":28,"refTime":"2025-03-19T03:00:00:Z","depth":0,"parameterNumber":3,"parameterNumberName":"V-component_of_WINDS"},"data":[0,0,0,0,0,0,0,0,0,0,0,0,0,0,0,0,0,0,0,0,0,0,0,0,0,0,0,0,0,0,0,0,0,0,0,0,0,0,0,0,0,0,0,0,0,0,0,0,0,0,0,0,0,0,0,0,0,0,-6.1374,-6.1375,0,-6.1477,-6.1478,-6.148,-6.1478,-6.1476,-6.1475,-6.1474,-6.1575,-6.1579,-6.1583,0,0,0,0,0,0,0,0,0,0,0,0,0,-6.1173,-6.1177,-6.1374,-6.1375,-6.1376,-6.1477,-6.1478,-6.148,-6.1478,-6.1476,-6.1475,-6.1473,-6.1574,-6.1579,-6.1583,0,0,0,0,0,0,0,0,0,0,0,0,0,-6.1267,-6.1178,-6.1374,-6.1388,-6.139,-6.1477,-6.1478,-6.148,-6.1478,-6.1476,-6.1474,-6.1472,-6.1572,-6.1578,-6.1584,-6.1662,0,0,-6.1602,-6.1605,0,0,0,0,0,0,0,0,-6.1261,-6.1274,-6.1384,-6.1387,-6.139,-6.1463,-6.1445,-6.1541,-6.1479,-6.1445,-6.1474,-6.1471,-6.1539,-6.1548,-6.1572,-6.1667,-6.1671,-6.1603,-6.1607,-6.1609,-6.1611,0,0,0,0,0,0,0,-6.1255,-6.127,-6.1415,-6.1386,-6.1389,-6.1388,-6.1399,-6.1463,-6.1502,-6.1448,-6.1448,-6.146,-6.154,-6.1566,-6.1574,-6.1673,-6.1603,-6.1608,-6.1612,-6.1614,-6.184,-6.1842,0,0,0,0,0,0,-6.1246,-6.1264,-6.1411,-6.1418,-6.1319,-6.1394,-6.1406,-6.1441,-6.1501,-6.1509,-6.1462,-6.146,-6.1557,-6.1567,-6.1577,-6.1675,-6.1609,-6.1615,-6.1618,-6.1838,-6.1841,-6.1843,0,0,0,0,0,0,-6.1242,-6.1259,-6.1407,-6.1341,-6.136,-6.1399,-6.1439,-6.1444,-6.147,-6.1512,-6.1519,-6.1481,-6.1555,-6.1569,-6.1642,-6.1678,-6.1617,-6.1623,-6.1835,-6.1839,-6.1842,-6.1868,0,0,0,0,0,0,-6.1236,-6.1258,-6.1288,-6.1342,-6.1364,-6.1471,-6.1441,-6.1448,-6.1481,-6.1479,-6.1532,-6.1539,-6.1555,-6.1633,-6.1648,-6.1685,-6.1627,-6.1832,-6.1837,-6.1841,-6.1864,-6.1872,-6.1879,0,0,0,0,0,-6.1229,-6.129,-6.1289,-6.1307,-6.1402,-6.1473,-6.1485,-6.1503,-6.1484,-6.1514,-6.1542,-6.1537,-6.1672,-6.1641,-6.1657,-6.1697,-6.183,-6.1835,-6.1841,-6.1861,-6.1871,-6.1879,0,0,0,0,0,0,-6.1236,-6.1297,-6.1297,-6.1378,-6.142,-6.1472,-6.1511,-6.1513,-6.1561,-6.1557,-6.1577,-6.1589,-6.1662,-6.1687,-6.1651,-6.1777,-6.1748,-6.1757,-6.1758,-6.1768,-6.1775,-6.1767,-6.1632,0,0,0,0,0,-6.1248,-6.1301,-6.135,-6.1416,-6.1438,-6.1471,-6.1503,-6.1514,-6.1558,-6.1575,-6.1608,-6.1651,-6.1703,-6.1736,-6.1787,-6.1868,-6.188,-6.1904,-6.1911,-6.1917,-6.1924,-6.1971,-6.1982,-6.1861,-6.1861,-6.1861,0,0,-6.1271,-6.1311,-6.1343,-6.1419,-6.1454,-6.1508,-6.1486,-6.1544,-6.1584,-6.1584,-6.1655,-6.1681,-6.173,-6.1808,-6.1844,-6.1831,-6.1961,-6.1924,-6.1928,-6.1932,-6.1978,-6.1989,-6.1999,-6.1865,-6.1864,-6.1864,0,0,-6.1342,-6.1377,-6.1437,-6.1473,-6.1526,-6.1548,-6.1563,-6.1615,-6.1633,-6.1706,-6.1708,-6.1755,-6.1844,-6.188,-6.1909,-6.1997,-6.1995,-6.2013,-6.2051,-6.2096,-6.2106,-6.2114,-6.2147,-6.2158,-6.202,-6.202,-6.202,0,-6.1363,-6.1446,-6.1467,-6.1526,-6.156,-6.1565,-6.1626,-6.1659,-6.1725,-6.1749,-6.1733,-6.1847,-6.188,-6.1967,-6.1989,-6.2013,-6.203,-6.2006,-6.2103,-6.2112,-6.212,-6.2151,-6.2163,-6.2022,-6.2022,-6.2022,-6.2021,0,-6.1471,-6.1529,-6.1571,-6.1637,-6.1676,-6.1735,-6.1765,-6.1802,-6.181,-6.1834,-6.1909,-6.195,-6.2009,-6.2031,-6.2038,-6.212,-6.211,-6.2099,-6.207,-6.2133,-6.2163,-6.2175,-6.2025,-6.2024,-6.2023,-6.2023,0,0,-6.1547,-6.1627,-6.1642,-6.1674,-6.1734,-6.1779,-6.1839,-6.1899,-6.1931,-6.1977,-6.2028,-6.2105,-6.2096,-6.213,-6.2142,-6.2181,-6.225,-6.2165,-6.2167,-6.218,-6.2344,-6.2353,-6.2366,-6.2249,-6.2252,-6.2254,-6.234,0,-6.1625,-6.1734,-6.1755,-6.1849,-6.1904,-6.191,-6.1963,-6.2006,-6.203,-6.2079,-6.2106,-6.2161,-6.2144,-6.2164,-6.2204,-6.2233,-6.2283,-6.2227,-6.2297,-6.2299,-6.2285,-6.2381,-6.239,-6.247,-6.2352,-6.2354,-6.2355,0,-6.1729,-6.1781,-6.1881,-6.1937,-6.196,-6.2007,-6.2066,-6.2112,-6.2162,-6.2177,-6.2216,-6.2225,-6.2288,-6.2257,-6.2345,-6.2306,-6.2337,-6.2355,-6.2359,-6.2366,-6.2331,-6.2391,-6.2496,-6.2508,-6.2373,-6.2372,-6.2371,0,-6.1776,-6.187,-6.1943,-6.1969,-6.2036,-6.2069,-6.2098,-6.2146,-6.2181,-6.2232,-6.2256,-6.2312,-6.2343,-6.2387,-6.241,-6.2386,-6.2497,-6.2468,-6.2511,-6.2511,-6.2533,-6.2532,-6.2644,-6.2553,-6.2552,-6.2552,-6.2552,0,-6.186,-6.1921,-6.1965,-6.201,-6.2079,-6.2104,-6.2171,-6.22,-6.2243,-6.2293,-6.2302,-6.2348,-6.2377,-6.2428,-6.2446,-6.2517,-6.2531,-6.2545,-6.2549,-6.2544,-6.2542,-6.2564,-6.2559,-6.2555,-6.2555,-6.2554,-6.2554,0,-6.1923,-6.1955,-6.2035,-6.2093,-6.2109,-6.2158,-6.2207,-6.2251,-6.2276,-6.234,-6.2356,-6.2396,-6.2457,-6.2486,-6.256,-6.2573,-6.2653,-6.2653,-6.2637,-6.2639,-6.2681,-6.2677,-6.2811,-6.283,-6.2725,-6.2726,-6.2727,0,-6.1975,-6.2023,-6.2087,-6.2122,-6.2153,-6.2209,-6.2247,-6.2273,-6.2312,-6.2373,-6.241,-6.2471,-6.2522,-6.2619,-6.2654,-6.2711,-6.2713,-6.2757,-6.2722,-6.2716,-6.2715,-6.2712,-6.2717,-6.2763,-6.2764,-6.2764,-6.2765,0,-6.2064,-6.2078,-6.2132,-6.2193,-6.2238,-6.2286,-6.2334,-6.2362,-6.2396,-6.2439,-6.2502,-6.2542,-6.262,-6.2681,-6.2742,-6.2771,-6.2774,-6.2776,-6.2789,-6.2785,-6.2774,-6.2781,-6.2655,-6.2773,-6.2772,-6.2771,-6.2771,-6.2771,-6.2124,-6.2167,-6.222,-6.228,-6.232,-6.2365,-6.2409,-6.2442,-6.2496,-6.2563,-6.2575,-6.2643,-6.2693,-6.2775,-6.2807,-6.286,-6.2849,-6.2868,-6.2873,-6.2877,-6.288,-6.2766,-6.2871,-6.287,-6.287,-6.287,-6.287,0,-6.2213,-6.2249,-6.2304,-6.2372,-6.242,-6.2421,-6.2474,-6.2514,-6.2574,-6.2621,-6.2672,-6.2746,-6.2806,-6.2847,-6.2908,-6.2943,-6.2946,-6.2958,-6.2956,-6.2963,-6.2885,-6.2868,-6.2955,-6.2955,-6.2955,-6.2955,-6.2955,-6.2955,-6.2266,-6.234,-6.2361,-6.2456,-6.249,-6.2558,-6.2589,-6.263,-6.2668,-6.2751,-6.2802,-6.2829,-6.2874,-6.2939,-6.2995,-6.3005,-6.3028,-6.304,-6.3051,-6.2977,-6.2968,-6.296,-6.2944,-6.3045,-6.3045,-6.3124,-6.3125,-6.3125]}]]